PAL212 RPLL-RPVE

Flight info

Callsign PAL212
Flight time 1h 1m
Altitude 25000
Route VERDE2R VERDE W24 TAPER TAPER7B
Aircraft A333/H-SDE3GHIJ2J3J5M1RVWXY/LB2D1

Departure

Time 2026-04-20 14:36
Airport Ninoy Aquino International Airport (RPLL)

Arrival

Time 2026-04-20 15:37
Airport Godofredo P. Ramos Airport (RPVE)
Time Latitude Longitude Altitude Speed Heading
2026-04-20 13:53 14.50426 121.00354 73 ft 0 kts 95°
2026-04-20 14:24 14.50427 121.00344 73 ft 2 kts 115°
2026-04-20 14:25 14.50435 121.00330 70 ft 2 kts 146°
2026-04-20 14:25 14.50449 121.00322 62 ft 2 kts 174°
2026-04-20 14:25 14.50451 121.00318 62 ft 2 kts 222°
2026-04-20 14:25 14.50445 121.00302 62 ft 2 kts 243°
2026-04-20 14:26 14.50432 121.00293 62 ft 2 kts 194°
2026-04-20 14:26 14.50416 121.00290 66 ft 2 kts 193°
2026-04-20 14:26 14.50400 121.00287 65 ft 2 kts 184°
2026-04-20 14:26 14.50398 121.00287 66 ft 0 kts 184°
2026-04-20 14:28 14.50394 121.00287 62 ft 2 kts 184°
2026-04-20 14:28 14.50363 121.00285 64 ft 7 kts 184°
2026-04-20 14:28 14.50303 121.00280 64 ft 11 kts 185°
2026-04-20 14:28 14.50224 121.00297 69 ft 13 kts 150°
2026-04-20 14:29 14.50141 121.00333 63 ft 9 kts 184°
2026-04-20 14:29 14.50105 121.00305 62 ft 7 kts 229°
2026-04-20 14:29 14.50072 121.00248 62 ft 11 kts 241°
2026-04-20 14:29 14.50027 121.00166 62 ft 15 kts 240°
2026-04-20 14:30 14.49970 121.00059 66 ft 17 kts 251°
2026-04-20 14:30 14.49919 120.99971 67 ft 7 kts 219°
2026-04-20 14:30 14.49882 120.99964 66 ft 0 kts 160°
2026-04-20 14:31 14.49881 120.99964 67 ft 1 kts 155°
2026-04-20 14:32 14.49879 120.99965 67 ft 0 kts 155°
2026-04-20 14:34 14.49875 120.99967 65 ft 2 kts 154°
2026-04-20 14:34 14.49848 120.99982 63 ft 6 kts 151°
2026-04-20 14:35 14.49810 121.00013 63 ft 6 kts 117°
2026-04-20 14:35 14.49816 121.00060 66 ft 7 kts 68°
2026-04-20 14:35 14.49853 121.00129 64 ft 25 kts 60°
2026-04-20 14:35 14.50084 121.00545 60 ft 109 kts 60°
2026-04-20 14:36 14.50591 121.01459 121 ft 180 kts 61°
2026-04-20 14:36 14.51283 121.02675 833 ft 201 kts 61°
2026-04-20 14:36 14.51972 121.03916 2121 ft 201 kts 60°
2026-04-20 14:36 14.52698 121.05233 2920 ft 223 kts 60°
2026-04-20 14:37 14.53510 121.06702 3523 ft 247 kts 60°
2026-04-20 14:37 14.54375 121.08266 4278 ft 259 kts 60°
2026-04-20 14:37 14.55293 121.09928 5275 ft 266 kts 61°
2026-04-20 14:37 14.56015 121.11673 6167 ft 269 kts 76°
2026-04-20 14:38 14.56088 121.13586 6726 ft 271 kts 100°
2026-04-20 14:38 14.55342 121.15377 6975 ft 276 kts 124°
2026-04-20 14:38 14.54062 121.16867 7033 ft 278 kts 134°
2026-04-20 14:38 14.52671 121.18264 7423 ft 281 kts 134°
2026-04-20 14:39 14.51265 121.19672 8380 ft 284 kts 134°
2026-04-20 14:39 14.49844 121.21108 9612 ft 286 kts 135°
2026-04-20 14:39 14.48269 121.22395 10651 ft 296 kts 148°
2026-04-20 14:39 14.46309 121.23141 11497 ft 310 kts 170°
2026-04-20 14:40 14.44116 121.23060 12376 ft 325 kts 192°
2026-04-20 14:40 14.42010 121.22028 13021 ft 344 kts 218°
2026-04-20 14:40 14.40302 121.20302 13844 ft 353 kts 228°
2026-04-20 14:40 14.38660 121.18384 14668 ft 360 kts 228°
2026-04-20 14:41 14.36993 121.16418 15447 ft 368 kts 228°
2026-04-20 14:41 14.35288 121.14430 16376 ft 369 kts 228°
2026-04-20 14:41 14.33572 121.12445 17266 ft 373 kts 227°
2026-04-20 14:41 14.31822 121.10431 18128 ft 377 kts 227°
2026-04-20 14:42 14.30077 121.08430 18873 ft 380 kts 227°
2026-04-20 14:42 14.28246 121.06447 19619 ft 382 kts 221°
2026-04-20 14:42 14.26147 121.04760 20351 ft 385 kts 214°
2026-04-20 14:42 14.23940 121.03185 21086 ft 387 kts 212°
2026-04-20 14:43 14.21698 121.01617 21828 ft 390 kts 213°
2026-04-20 14:43 14.19445 121.00041 22551 ft 393 kts 213°
2026-04-20 14:43 14.17168 120.98443 23225 ft 397 kts 213°
2026-04-20 14:43 14.14860 120.96821 23827 ft 401 kts 213°
2026-04-20 14:44 14.12552 120.95196 24386 ft 405 kts 213°
2026-04-20 14:44 14.10222 120.93555 24797 ft 406 kts 213°
2026-04-20 14:44 14.07883 120.91926 24944 ft 401 kts 211°
2026-04-20 14:44 14.05463 120.90681 24973 ft 380 kts 198°
2026-04-20 14:45 14.02959 120.90159 24974 ft 366 kts 183°
2026-04-20 14:45 14.00432 120.90348 24970 ft 363 kts 169°
2026-04-20 14:45 13.97955 120.90922 24966 ft 365 kts 166°
2026-04-20 14:45 13.95479 120.91571 24966 ft 366 kts 166°
2026-04-20 14:46 13.93048 120.92213 24968 ft 366 kts 166°
2026-04-20 14:46 13.90578 120.92859 24969 ft 366 kts 166°
2026-04-20 14:46 13.88120 120.93497 24969 ft 366 kts 166°
2026-04-20 14:46 13.85645 120.94136 24969 ft 366 kts 166°
2026-04-20 14:47 13.83171 120.94773 24966 ft 366 kts 166°
2026-04-20 14:47 13.80708 120.95406 24967 ft 366 kts 166°
2026-04-20 14:47 13.78231 120.96041 24966 ft 366 kts 166°
2026-04-20 14:48 13.73278 120.97311 24975 ft 366 kts 166°
2026-04-20 14:48 13.70808 120.97944 24974 ft 366 kts 166°
2026-04-20 14:48 13.68337 120.98577 24974 ft 366 kts 166°
2026-04-20 14:48 13.65894 120.99203 24974 ft 366 kts 166°
2026-04-20 14:49 13.63419 120.99836 24971 ft 366 kts 166°
2026-04-20 14:49 13.60940 121.00471 24979 ft 366 kts 166°
2026-04-20 14:49 13.58470 121.01103 24979 ft 366 kts 166°
2026-04-20 14:49 13.56007 121.01733 24979 ft 366 kts 166°
2026-04-20 14:50 13.53534 121.02366 24979 ft 366 kts 166°
2026-04-20 14:50 13.51079 121.03095 24979 ft 366 kts 160°
2026-04-20 14:50 13.48789 121.04254 24986 ft 367 kts 151°
2026-04-20 14:50 13.46620 121.05626 24984 ft 366 kts 148°
2026-04-20 14:51 13.44535 121.07077 24988 ft 366 kts 146°
2026-04-20 14:51 13.42454 121.08586 24987 ft 367 kts 146°
2026-04-20 14:51 13.40371 121.10108 24988 ft 367 kts 146°
2026-04-20 14:51 13.38290 121.11618 24987 ft 366 kts 146°
2026-04-20 14:52 13.36206 121.13112 24988 ft 366 kts 147°
2026-04-20 14:52 13.34104 121.14599 24990 ft 365 kts 147°
2026-04-20 14:52 13.32011 121.16072 24990 ft 366 kts 147°
2026-04-20 14:52 13.29835 121.17598 24804 ft 391 kts 147°
2026-04-20 14:53 13.27546 121.19204 24551 ft 402 kts 146°
2026-04-20 14:53 13.25224 121.20833 24339 ft 404 kts 146°
2026-04-20 14:53 13.22912 121.22456 24131 ft 401 kts 146°
2026-04-20 14:53 13.20617 121.24066 23911 ft 399 kts 146°
2026-04-20 14:54 13.19099 121.25130 23770 ft 399 kts 146°
2026-04-20 14:54 13.16803 121.26740 23549 ft 399 kts 146°
2026-04-20 14:54 13.13764 121.28870 23209 ft 398 kts 146°
2026-04-20 14:54 13.12231 121.29944 23039 ft 397 kts 146°
2026-04-20 14:55 13.09945 121.31545 22788 ft 396 kts 146°
2026-04-20 14:55 13.06939 121.33650 22451 ft 394 kts 146°
2026-04-20 14:55 13.05408 121.34722 22274 ft 393 kts 146°
2026-04-20 14:55 13.03151 121.36302 22030 ft 392 kts 146°
2026-04-20 14:56 13.00907 121.37873 21771 ft 391 kts 146°
2026-04-20 14:56 12.98689 121.39425 21157 ft 389 kts 146°
2026-04-20 14:56 12.96462 121.40982 20546 ft 386 kts 146°
2026-04-20 14:56 12.94252 121.42528 19968 ft 382 kts 146°
2026-04-20 14:57 12.92070 121.44054 19385 ft 379 kts 146°
2026-04-20 14:57 12.89897 121.45573 18817 ft 376 kts 146°
2026-04-20 14:57 12.87743 121.47079 18231 ft 374 kts 146°
2026-04-20 14:57 12.85602 121.48574 17589 ft 371 kts 146°
2026-04-20 14:58 12.83488 121.50051 16984 ft 366 kts 146°
2026-04-20 14:58 12.81384 121.51520 16384 ft 363 kts 145°
2026-04-20 14:58 12.79310 121.52968 15777 ft 360 kts 145°
2026-04-20 14:58 12.77240 121.54413 15144 ft 357 kts 145°
2026-04-20 14:59 12.75215 121.55826 14550 ft 355 kts 144°
2026-04-20 14:59 12.73172 121.57252 13966 ft 352 kts 144°
2026-04-20 14:59 12.71151 121.58663 13351 ft 349 kts 144°
2026-04-20 14:59 12.69143 121.60063 12952 ft 346 kts 144°
2026-04-20 15:00 12.67150 121.61453 12691 ft 345 kts 144°
2026-04-20 15:00 12.65171 121.62834 12454 ft 343 kts 144°
2026-04-20 15:00 12.63224 121.64192 12105 ft 341 kts 144°
2026-04-20 15:00 12.61169 121.65624 11476 ft 337 kts 144°
2026-04-20 15:01 12.59348 121.66892 10969 ft 332 kts 144°
2026-04-20 15:01 12.57473 121.68198 10724 ft 318 kts 143°
2026-04-20 15:01 12.55688 121.69439 10535 ft 304 kts 143°
2026-04-20 15:01 12.53962 121.70641 10220 ft 295 kts 143°
2026-04-20 15:02 12.52276 121.71817 9828 ft 292 kts 143°
2026-04-20 15:02 12.50608 121.72979 9371 ft 289 kts 143°
2026-04-20 15:02 12.48949 121.74136 8894 ft 287 kts 143°
2026-04-20 15:02 12.47296 121.75287 8444 ft 286 kts 143°
2026-04-20 15:03 12.45655 121.76430 8102 ft 283 kts 143°
2026-04-20 15:03 12.44034 121.77559 8013 ft 283 kts 143°
2026-04-20 15:03 12.42408 121.78691 8014 ft 282 kts 143°
2026-04-20 15:03 12.40803 121.79808 8031 ft 282 kts 143°
2026-04-20 15:04 12.39182 121.80936 8012 ft 282 kts 143°
2026-04-20 15:04 12.37549 121.82059 8012 ft 283 kts 145°
2026-04-20 15:04 12.35778 121.82962 7867 ft 285 kts 157°
2026-04-20 15:04 12.33897 121.83587 7639 ft 285 kts 161°
2026-04-20 15:05 12.31989 121.84149 7395 ft 285 kts 161°
2026-04-20 15:05 12.30084 121.84704 7153 ft 284 kts 161°
2026-04-20 15:05 12.28193 121.85258 6927 ft 283 kts 161°
2026-04-20 15:05 12.26304 121.85815 6704 ft 282 kts 161°
2026-04-20 15:06 12.24424 121.86371 6548 ft 281 kts 161°
2026-04-20 15:06 12.22544 121.86929 6428 ft 280 kts 161°
2026-04-20 15:06 12.20691 121.87480 6297 ft 280 kts 161°
2026-04-20 15:06 12.18819 121.88036 6058 ft 279 kts 161°
2026-04-20 15:07 12.16953 121.88590 5812 ft 279 kts 161°
2026-04-20 15:07 12.15091 121.89144 5572 ft 278 kts 161°
2026-04-20 15:07 12.13243 121.89693 5331 ft 277 kts 161°
2026-04-20 15:07 12.11398 121.90242 5090 ft 276 kts 161°
2026-04-20 15:08 12.09559 121.90788 4880 ft 275 kts 160°
2026-04-20 15:08 12.07719 121.91327 4770 ft 275 kts 162°
2026-04-20 15:08 12.05811 121.91540 4647 ft 279 kts 182°
2026-04-20 15:08 12.03957 121.90946 4518 ft 283 kts 209°
2026-04-20 15:09 12.02514 121.89579 4408 ft 286 kts 230°
2026-04-20 15:09 12.01344 121.87931 4280 ft 286 kts 234°
2026-04-20 15:09 12.00222 121.86249 4159 ft 286 kts 234°
2026-04-20 15:09 11.99116 121.84595 4031 ft 286 kts 234°
2026-04-20 15:10 11.97979 121.82913 3907 ft 280 kts 234°
2026-04-20 15:10 11.96899 121.81326 3823 ft 264 kts 234°
2026-04-20 15:10 11.95878 121.79829 3817 ft 248 kts 234°
2026-04-20 15:10 11.94927 121.78442 3824 ft 233 kts 233°
2026-04-20 15:11 11.94031 121.77135 3828 ft 216 kts 233°
2026-04-20 15:11 11.93203 121.75933 3826 ft 198 kts 232°
2026-04-20 15:11 11.92339 121.74933 3813 ft 178 kts 218°
2026-04-20 15:11 11.91367 121.74298 3808 ft 156 kts 199°
2026-04-20 15:12 11.90378 121.74013 3808 ft 142 kts 180°
2026-04-20 15:12 11.89441 121.74008 3695 ft 130 kts 165°
2026-04-20 15:12 11.88587 121.74231 3496 ft 125 kts 150°
2026-04-20 15:12 11.87819 121.74603 3299 ft 123 kts 144°
2026-04-20 15:13 11.87054 121.75004 3096 ft 122 kts 144°
2026-04-20 15:13 11.86307 121.75395 2894 ft 122 kts 144°
2026-04-20 15:13 11.85571 121.75838 2680 ft 120 kts 135°
2026-04-20 15:13 11.84987 121.76412 2468 ft 117 kts 121°
2026-04-20 15:14 11.84572 121.77108 2261 ft 115 kts 108°
2026-04-20 15:14 11.84345 121.77894 2204 ft 116 kts 96°
2026-04-20 15:14 11.84317 121.78722 2208 ft 118 kts 83°
2026-04-20 15:14 11.84501 121.79538 2204 ft 119 kts 69°
2026-04-20 15:15 11.84858 121.80300 2207 ft 120 kts 63°
2026-04-20 15:15 11.85243 121.81059 2205 ft 120 kts 63°
2026-04-20 15:15 11.85626 121.81812 2208 ft 120 kts 63°
2026-04-20 15:15 11.86003 121.82557 2205 ft 120 kts 64°
2026-04-20 15:16 11.86390 121.83324 2206 ft 120 kts 64°
2026-04-20 15:16 11.86771 121.84082 2206 ft 120 kts 63°
2026-04-20 15:16 11.87148 121.84829 2202 ft 119 kts 64°
2026-04-20 15:16 11.87520 121.85564 2072 ft 113 kts 64°
2026-04-20 15:17 11.87887 121.86252 1939 ft 110 kts 61°
2026-04-20 15:17 11.88274 121.86927 1813 ft 110 kts 60°
2026-04-20 15:17 11.88674 121.87601 1633 ft 111 kts 62°
2026-04-20 15:17 11.89065 121.88278 1467 ft 110 kts 63°
2026-04-20 15:18 11.89424 121.88968 1225 ft 111 kts 63°
2026-04-20 15:18 11.89748 121.89699 1153 ft 113 kts 71°
2026-04-20 15:18 11.90009 121.90446 1124 ft 111 kts 66°
2026-04-20 15:18 11.90376 121.91143 1014 ft 111 kts 61°
2026-04-20 15:19 11.90712 121.91853 784 ft 111 kts 67°
2026-04-20 15:19 11.91040 121.92549 623 ft 111 kts 62°
2026-04-20 15:19 11.91403 121.93257 466 ft 114 kts 68°
2026-04-20 15:19 11.91760 121.93997 324 ft 116 kts 63°
2026-04-20 15:20 11.92128 121.94720 158 ft 114 kts 70°
2026-04-20 15:20 11.92512 121.95444 418 ft 122 kts 69°
2026-04-20 15:20 11.92952 121.96459 826 ft 195 kts 64°
2026-04-20 15:20 11.93574 121.97674 1905 ft 179 kts 63°
2026-04-20 15:21 11.94128 121.98756 2764 ft 173 kts 64°
2026-04-20 15:21 11.94696 121.99874 3284 ft 176 kts 64°
2026-04-20 15:21 11.95258 122.00985 3615 ft 181 kts 63°
2026-04-20 15:21 11.96084 122.01948 3791 ft 185 kts 33°
2026-04-20 15:22 11.97362 122.02090 3816 ft 195 kts 350°
2026-04-20 15:22 11.98629 122.01528 3816 ft 199 kts 336°
2026-04-20 15:22 11.99843 122.00842 3813 ft 200 kts 335°
2026-04-20 15:22 12.01063 122.00154 3812 ft 200 kts 336°
2026-04-20 15:23 12.02279 121.99455 3812 ft 201 kts 331°
2026-04-20 15:23 12.03289 121.98479 3811 ft 207 kts 308°
2026-04-20 15:23 12.03837 121.97113 3674 ft 210 kts 285°
2026-04-20 15:23 12.04078 121.95642 3349 ft 211 kts 278°
2026-04-20 15:24 12.04086 121.94150 3021 ft 210 kts 262°
2026-04-20 15:24 12.03623 121.92745 2673 ft 209 kts 239°
2026-04-20 15:24 12.02693 121.91636 2355 ft 205 kts 215°
2026-04-20 15:24 12.01482 121.90923 2115 ft 198 kts 201°
2026-04-20 15:25 12.00220 121.90368 2180 ft 198 kts 199°
2026-04-20 15:25 11.98947 121.89826 2210 ft 198 kts 199°
2026-04-20 15:25 11.97674 121.89279 2205 ft 199 kts 199°
2026-04-20 15:25 11.96394 121.88721 2208 ft 200 kts 200°
2026-04-20 15:26 11.95121 121.88154 2212 ft 200 kts 202°
2026-04-20 15:26 11.94016 121.87302 2210 ft 203 kts 224°
2026-04-20 15:26 11.93184 121.86130 2210 ft 205 kts 240°
2026-04-20 15:26 11.92733 121.84753 2204 ft 206 kts 263°
2026-04-20 15:27 11.92717 121.83295 2208 ft 205 kts 271°
2026-04-20 15:27 11.92681 121.81837 2202 ft 205 kts 269°
2026-04-20 15:27 11.92635 121.80381 2204 ft 205 kts 269°
2026-04-20 15:27 11.92573 121.78924 2204 ft 205 kts 268°
2026-04-20 15:28 11.92507 121.77466 2208 ft 206 kts 269°
2026-04-20 15:28 11.92436 121.76024 2207 ft 205 kts 269°
2026-04-20 15:28 11.92354 121.74579 2206 ft 204 kts 266°
2026-04-20 15:28 11.91874 121.73227 2205 ft 206 kts 232°
2026-04-20 15:29 11.90733 121.72403 2207 ft 202 kts 194°
2026-04-20 15:29 11.89373 121.72379 2210 ft 195 kts 162°
2026-04-20 15:29 11.88091 121.72811 2203 ft 192 kts 154°
2026-04-20 15:29 11.86861 121.73322 2202 ft 191 kts 153°
2026-04-20 15:30 11.85631 121.73847 2205 ft 191 kts 153°
2026-04-20 15:30 11.84405 121.74367 2211 ft 191 kts 150°
2026-04-20 15:30 11.83403 121.75167 2204 ft 178 kts 117°
2026-04-20 15:30 11.83168 121.76271 2204 ft 153 kts 80°
2026-04-20 15:31 11.83482 121.77235 2212 ft 134 kts 66°
2026-04-20 15:31 11.83858 121.78044 2211 ft 121 kts 65°
2026-04-20 15:31 11.84224 121.78807 2206 ft 119 kts 64°
2026-04-20 15:31 11.84589 121.79562 2203 ft 119 kts 64°
2026-04-20 15:32 11.84957 121.80326 2202 ft 120 kts 64°
2026-04-20 15:32 11.85328 121.81089 2205 ft 119 kts 64°
2026-04-20 15:32 11.85696 121.81846 2204 ft 119 kts 65°
2026-04-20 15:32 11.86065 121.82605 2200 ft 119 kts 65°
2026-04-20 15:33 11.86434 121.83365 2224 ft 119 kts 64°
2026-04-20 15:33 11.86798 121.84104 2205 ft 118 kts 64°
2026-04-20 15:33 11.87170 121.84852 2202 ft 118 kts 64°
2026-04-20 15:33 11.87545 121.85607 2131 ft 120 kts 64°
2026-04-20 15:34 11.87916 121.86363 1940 ft 118 kts 64°
2026-04-20 15:34 11.88282 121.87111 1791 ft 118 kts 65°
2026-04-20 15:34 11.88655 121.87857 1651 ft 119 kts 64°
2026-04-20 15:34 11.89041 121.88595 1369 ft 115 kts 66°
2026-04-20 15:35 11.89462 121.89310 1262 ft 123 kts 60°
2026-04-20 15:35 11.89889 121.90152 1306 ft 142 kts 65°
2026-04-20 15:35 11.90317 121.91035 1219 ft 134 kts 64°
2026-04-20 15:35 11.90710 121.91860 960 ft 123 kts 65°
2026-04-20 15:36 11.91079 121.92632 677 ft 120 kts 65°
2026-04-20 15:36 11.91457 121.93384 419 ft 117 kts 64°
2026-04-20 15:36 11.91817 121.94134 308 ft 118 kts 63°
2026-04-20 15:36 11.92192 121.94870 125 ft 117 kts 66°
2026-04-20 15:37 11.92545 121.95579 30 ft 103 kts 66°
2026-04-20 15:37 11.92799 121.96081 30 ft 47 kts 63°
2026-04-20 15:37 11.92889 121.96261 28 ft 26 kts 63°
2026-04-20 15:37 11.92958 121.96413 27 ft 10 kts 88°
2026-04-20 15:38 11.92937 121.96461 29 ft 6 kts 140°
2026-04-20 15:38 11.92896 121.96491 30 ft 9 kts 151°
2026-04-20 15:38 11.92830 121.96523 30 ft 9 kts 169°
2026-04-20 15:38 11.92790 121.96501 30 ft 7 kts 223°
2026-04-20 15:39 11.92767 121.96463 30 ft 5 kts 225°
2026-04-20 15:39 11.92744 121.96462 30 ft 3 kts 166°
2026-04-20 15:39 11.92737 121.96466 30 ft 0 kts 153°
2026-04-20 15:39 11.92734 121.96468 30 ft 0 kts 152°